Lid_Strength_Index
-2 -2 -2 -2 -2 -2 -2 -2 -2 -2 -2 -1 -1 -1 -1 -1 -1 -0 -1 -1 -1 -1 -1 -1 -1 0 5 10 10 6 2 4 6 6 8 9 11 12 14 13 12 12 12 11 11 12 13
-1 -1 -2 -2 -2 -2 -2 -2 -1 -1 -1 -1 -1 -1 -1 -1 -0 -0 -0 -1 -1 -1 -0 0 0 1 8 12 7 7 7 7 7 7 9 10 11 11 12 14 13 13 12 13 12 12 12
-1 -1 -1 -1 -1 -1 -2 -1 -1 -1 -1 -1 -1 -2 -1 -1 -1 -1 -1 -1 -1 -0 0 1 0 5 8 10 7 6 7 8 7 8 9 9 10 11 13 13 13 13 14 14 13 12 13
-1 -1 -1 -1 -1 -1 -1 -1 -1 -1 -1 -1 -0 -1 -1 -0 -0 -1 -0 -1 1 1 2 0 -1 7 10 6 6 6 7 7 7 7 7 9 9 11 12 13 12 15 16 17 14 12 12
-1 -1 -1 -1 -1 -1 -0 -1 -1 -1 -1 -1 -0 0 -0 0 0 0 1 1 1 1 0 -0 6 9 12 4 7 7 7 7 7 7 6 5 9 11 12 15 17 16 19 17 16 12 12
-1 -1 -1 -1 -0 -1 -0 -0 -0 -0 -0 -0 -0 0 0 1 1 -0 0 0 0 1 3 5 6 11 8 9 7 7 6 6 8 9 8 9 12 14 15 16 19 19 19 17 17 14 13
-0 -1 -1 -1 -1 -0 -0 0 0 0 0 0 0 -0 0 1 0 -0 2 4 8 8 7 9 9 9 8 6 6 7 5 7 9 9 13 12 15 18 16 15 15 15 16 17 16 13 14
-0 -0 -1 -1 -1 -0 -0 0 0 0 1 1 1 0 1 1 1 1 4 7 8 7 10 8 7 7 6 6 10 7 6 10 10 13 12 14 16 13 12 13 14 15 17 17 15 13 15
-1 -0 -0 -1 -1 -0 -0 0 0 1 1 1 1 1 1 2 2 4 6 7 5 7 11 10 8 8 8 7 9 8 7 9 11 13 14 16 14 11 12 14 15 16 17 17 16 14 16
-1 -1 -0 0 -0 -1 -0 -0 0 1 1 1 1 1 1 2 5 7 8 5 6 7 15 13 10 8 7 7 10 6 6 9 11 14 14 14 12 12 14 14 15 18 14 15 15 18 22
-1 -1 -1 -0 -0 0 -0 -0 -0 0 1 2 2 1 2 3 7 8 7 5 6 8 21 13 11 7 7 11 11 9 7 9 13 12 15 15 14 14 14 14 14 16 13 15 16 19 21
-0 -1 -1 -1 -0 -0 0 0 -0 0 1 2 2 2 2 6 7 7 6 7 9 16 22 15 11 11 11 10 10 9 10 9 10 12 12 13 12 12 13 12 13 13 16 18 18 19 24
-0 -0 -0 -1 -1 -0 -0 0 1 -0 0 1 2 2 5 6 9 6 7 10 17 21 15 15 14 12 13 13 12 12 13 15 15 19 20 15 14 12 12 15 14 16 20 23 23 24 23
-0 -0 -0 -0 -0 -1 -0 0 1 1 1 1 2 3 5 7 7 7 10 14 21 17 17 13 13 14 15 14 14 13 14 16 15 16 19 20 22 15 13 15 16 17 19 22 25 25 24
0 -0 -0 -0 0 0 -0 0 1 2 2 2 3 7 8 7 6 8 12 19 18 17 15 15 14 17 17 15 15 15 16 17 16 16 19 19 19 13 12 12 14 17 19 17 21 23 23
1 1 0 -0 1 1 0 0 1 2 2 3 8 9 9 7 7 10 14 16 16 13 12 13 17 16 18 17 17 17 17 15 15 14 15 17 20 16 13 13 13 15 15 19 20 23 24
2 1 1 1 1 1 1 1 2 2 2 4 10 11 8 7 9 12 17 16 14 12 12 14 16 17 17 17 16 18 17 15 14 15 15 17 19 20 15 16 16 15 17 17 18 19 22
3 2 2 2 2 2 2 2 2 2 3 8 12 12 8 8 13 15 15 14 10 12 11 12 13 15 16 17 18 18 17 16 12 13 16 16 19 21 18 15 14 16 17 17 20 22 21
3 3 2 2 2 2 2 2 2 2 4 10 12 12 8 10 16 16 14 13 12 13 13 13 14 13 14 16 18 17 16 12 12 13 15 15 19 23 20 18 16 16 15 16 18 18 21
3 3 3 2 2 2 2 2 3 3 3 9 12 13 11 13 14 15 15 14 15 12 13 13 14 14 15 16 16 17 16 13 12 12 9 12 18 20 22 20 17 18 17 16 16 21 20
3 3 3 3 2 2 2 2 3 3 4 9 13 15 14 15 14 16 16 15 16 15 13 13 15 15 16 18 17 17 16 15 13 10 13 15 18 20 18 17 17 17 16 16 17 16 18
2 3 3 3 3 2 2 3 3 3 4 11 12 13 13 14 14 15 15 17 16 15 15 15 16 15 15 17 17 18 16 16 16 15 14 15 18 17 18 16 16 17 16 16 16 16 16
2 2 2 2 3 3 3 3 3 3 6 11 12 11 12 13 15 15 16 16 15 14 14 14 15 15 16 14 14 14 15 15 16 15 15 16 18 18 19 18 18 18 17 17 17 17 17
3 2 2 2 2 3 3 3 3 3 6 9 11 11 13 14 14 14 14 14 14 14 15 14 14 15 14 13 13 14 15 14 14 14 14 17 17 18 19 18 22 15 15 15 16 16 16
2 2 2 2 3 3 3 3 3 3 4 9 10 11 12 14 13 13 13 13 13 13 13 13 13 13 12 13 15 16 16 17 17 16 16 15 17 18 20 21 18 15 17 17 18 17 16
2 2 3 3 3 3 4 3 3 3 4 8 9 9 11 13 13 12 13 13 14 15 14 13 12 11 12 13 15 17 18 17 18 19 16 16 16 17 19 21 21 16 16 15 16 19 15
4 3 3 3 3 3 3 3 3 3 4 8 9 9 10 13 12 13 13 13 12 14 14 14 14 13 12 15 16 17 17 16 17 18 19 18 18 18 18 19 18 14 14 14 18 17 14
4 3 3 3 3 3 3 3 3 3 4 7 8 8 10 12 11 10 10 12 12 13 14 13 13 13 15 16 16 16 18 16 18 17 18 18 19 19 19 19 21 14 14 17 15 13 13
5 4 4 3 3 3 3 3 3 3 3 5 8 8 8 10 11 10 9 10 10 10 12 12 13 13 13 15 16 16 16 17 17 18 16 17 15 16 16 16 13 13 14 12 11 12 13